Location: ??????
(42.0089°N, 44.3281°E)
Time: 13:04:57
(UTC+00:00)

NOSS 8 (H) - Pass Details

Date: 06 June 2022
Orbit: 366 x 1779 km, 63.3° (Epoch: 28 June)

Event Time Altitude Azimuth Distance (km) Brightness Sun altitude
Rises 18:29:39 0° 304° (NW) 2,712 9.7 -16.4°
Reaches altitude 10° 18:32:07 10° 285° (WNW) 1,998 8.4 -16.7°
Maximum altitude 18:35:15 19° 241° (WSW) 1,729 7.4 -17.0°
Enters shadow 18:39:05 10° 199° (SSW) 2,544 7.8 -17.4°
